| time (UTC) | temp F | wind direction | speed knots | gust knots | rain 1hr in | rain 24hr in | rain mn in | humidity % | barometer mb |
| 20260509191605 | 62 | 12 | 3.5 | 13.9 | 0.00 | 0.00 | 0.00 | 20 | 1018.6 |
| 20260509190605 | 63 | 14 | 6.1 | 14.8 | 0.00 | 0.00 | 0.00 | 20 | 1018.5 |
| 20260509190105 | 63 | 14 | 3.5 | 13.9 | 0.00 | 0.00 | 0.00 | 20 | 1018.5 |
| 20260509184604 | 62 | 13 | 3.5 | 7.8 | 0.00 | 0.00 | 0.00 | 19 | 1018.7 |
| 20260509184105 | 61 | 14 | 4.3 | 8.7 | 0.00 | 0.00 | 0.00 | 19 | 1018.8 |
| 20260509183605 | 61 | 14 | 7.0 | 13.9 | 0.00 | 0.00 | 0.00 | 19 | 1018.9 |
| 20260509183105 | 61 | 14 | 4.3 | 13.0 | 0.00 | 0.00 | 0.00 | 18 | 1018.8 |
| 20260509181605 | 62 | 14 | 2.6 | 18.2 | 0.00 | 0.00 | 0.00 | 19 | 1018.9 |
| 20260509181105 | 63 | 12 | 4.3 | 8.7 | 0.00 | 0.00 | 0.00 | 20 | 1018.8 |
| 20260509180605 | 62 | 13 | 3.5 | 10.4 | 0.00 | 0.00 | 0.00 | 21 | 1018.8 |
| 20260509180105 | 61 | 14 | 2.6 | 10.4 | 0.00 | 0.00 | 0.00 | 21 | 1019.0 |
| 20260509174604 | 61 | 14 | 4.3 | 10.4 | 0.00 | 0.00 | 0.00 | 19 | 1019.2 |
| 20260509174105 | 60 | 14 | 3.5 | 10.4 | 0.00 | 0.00 | 0.00 | 22 | 1019.2 |
| 20260509173605 | 60 | 14 | 4.3 | 14.8 | 0.00 | 0.00 | 0.00 | 17 | 1019.1 |
| 20260509173105 | 60 | 14 | 2.6 | 11.3 | 0.00 | 0.00 | 0.00 | 19 | 1019.1 |
| 20260509171605 | 59 | 14 | 2.6 | 10.4 | 0.00 | 0.00 | 0.00 | 21 | 1019.3 |
| 20260509170605 | 58 | 9 | 4.3 | 10.4 | 0.00 | 0.00 | 0.00 | 22 | 1019.3 |
| 20260509170105 | 57 | 14 | 4.3 | 10.4 | 0.00 | 0.00 | 0.00 | 21 | 1019.2 |
| 20260509164605 | 57 | 13 | 4.3 | 8.7 | 0.00 | 0.00 | 0.00 | 19 | 1019.1 |
| 20260509164105 | 57 | 15 | 5.2 | 11.3 | 0.00 | 0.00 | 0.00 | 19 | 1019.2 |
| 20260509163605 | 59 | 14 | 7.0 | 10.4 | 0.00 | 0.00 | 0.00 | 19 | 1019.2 |
| 20260509163105 | 59 | 14 | 3.5 | 10.4 | 0.00 | 0.00 | 0.00 | 24 | 1019.0 |
| 20260509161605 | 56 | 14 | 5.2 | 12.2 | 0.00 | 0.00 | 0.00 | 21 | 1018.9 |
| 20260509161105 | 56 | 14 | 3.5 | 7.8 | 0.00 | 0.00 | 0.00 | 24 | 1019.1 |
| 20260509160605 | 56 | 14 | 1.7 | 6.1 | 0.00 | 0.00 | 0.00 | 27 | 1019.0 |
| 20260509160105 | 56 | 13 | 0.9 | 7.8 | 0.00 | 0.00 | 0.00 | 25 | 1018.9 |
| 20260509154604 | 55 | 14 | 4.3 | 5.2 | 0.00 | 0.00 | 0.00 | 26 | 1019.0 |
| 20260509154105 | 55 | 14 | 4.3 | 5.2 | 0.00 | 0.00 | 0.00 | 26 | 1018.9 |
| 20260509153105 | 55 | 14 | 4.3 | 6.1 | 0.00 | 0.00 | 0.00 | 27 | 1018.9 |
| 20260509151604 | 55 | 15 | 2.6 | 4.3 | 0.00 | 0.00 | 0.00 | 28 | 1018.8 |
| 20260509151104 | 54 | 13 | 1.7 | 4.3 | 0.00 | 0.00 | 0.00 | 29 | 1018.8 |
| 20260509150604 | 53 | 12 | 1.7 | 5.2 | 0.00 | 0.00 | 0.00 | 30 | 1018.7 |
| 20260509150105 | 53 | 13 | 2.6 | 5.2 | 0.00 | 0.00 | 0.00 | 29 | 1018.8 |
| 20260509144105 | 51 | 12 | 2.6 | 4.3 | 0.00 | 0.00 | 0.00 | 41 | 1018.8 |
| 20260509143605 | 50 | 12 | 3.5 | 4.3 | 0.00 | 0.00 | 0.00 | 41 | 1018.9 |
| 20260509141605 | 48 | 10 | 0.0 | 0.9 | 0.00 | 0.00 | 0.00 | 47 | 1019.0 |
| 20260509140604 | 46 | 11 | 0.9 | 0.9 | 0.00 | 0.00 | 0.00 | 51 | 1019.1 |
| 20260509140105 | 46 | 11 | 0.9 | 2.6 | 0.00 | 0.00 | 0.00 | 49 | 1019.2 |
| 20260509134604 | 45 | 9 | 0.0 | 0.0 | 0.00 | 0.00 | 0.00 | 49 | 1019.2 |
| 20260509134105 | 45 | 15 | 0.0 | 0.0 | 0.00 | 0.00 | 0.00 | 48 | 1019.3 |
| 20260509133604 | 45 | 15 | 0.0 | 0.0 | 0.00 | 0.00 | 0.00 | 50 | 1019.3 |
| 20260509133105 | 45 | 15 | 0.0 | 0.0 | 0.00 | 0.00 | 0.00 | 52 | 1019.4 |
| 20260509131605 | 41 | 15 | 0.0 | 0.0 | 0.00 | 0.00 | 0.00 | 50 | 1019.5 |
| 20260509131104 | 40 | 15 | 0.0 | 1.7 | 0.00 | 0.00 | 0.00 | 51 | 1019.4 |
| 20260509130605 | 40 | 15 | 0.9 | 1.7 | 0.00 | 0.00 | 0.00 | 52 | 1019.4 |
| 20260509130105 | 39 | 14 | 0.0 | 2.6 | 0.00 | 0.00 | 0.00 | 54 | 1019.3 |
| 20260509124605 | 38 | 6 | 0.0 | 0.9 | 0.00 | 0.00 | 0.00 | 55 | 1018.9 |
| 20260509124105 | 38 | 5 | 0.0 | 0.9 | 0.00 | 0.00 | 0.00 | 57 | 1018.9 |
| 20260509123605 | 38 | 5 | 0.0 | 0.0 | 0.00 | 0.00 | 0.00 | 55 | 1018.9 |
| 20260509123104 | 38 | 5 | 0.9 | 2.6 | 0.00 | 0.00 | 0.00 | 58 | 1018.9 |
| 20260509121104 | 38 | 13 | 0.0 | 1.7 | 0.00 | 0.00 | 0.00 | 58 | 1018.8 |
| 20260509120605 | 38 | 13 | 0.9 | 1.7 | 0.00 | 0.00 | 0.00 | 59 | 1018.7 |
| 20260509114604 | 39 | 9 | 1.7 | 2.6 | 0.00 | 0.00 | 0.00 | 59 | 1018.4 |
| 20260509114104 | 39 | 5 | 0.0 | 0.9 | 0.00 | 0.00 | 0.00 | 59 | 1018.3 |
| 20260509113604 | 39 | 5 | 0.0 | 1.7 | 0.00 | 0.00 | 0.00 | 58 | 1018.4 |
| 20260509113104 | 39 | 5 | 1.7 | 1.7 | 0.00 | 0.00 | 0.00 | 58 | 1018.3 |
| 20260509111104 | 40 | 0 | 0.0 | 1.7 | 0.00 | 0.00 | 0.00 | 59 | 1018.2 |
| 20260509110605 | 40 | 5 | 0.9 | 1.7 | 0.00 | 0.00 | 0.00 | 58 | 1018.2 |
| 20260509110104 | 40 | 5 | 0.0 | 2.6 | 0.00 | 0.00 | 0.00 | 59 | 1018.1 |
| 20260509104605 | 40 | 9 | 0.0 | 0.9 | 0.00 | 0.00 | 0.00 | 60 | 1018.1 |
| 20260509104108 | 40 | 9 | 0.0 | 0.9 | 0.00 | 0.00 | 0.00 | 60 | 1018.1 |
| 20260509103604 | 40 | 9 | 0.0 | 0.0 | 0.00 | 0.00 | 0.00 | 60 | 1018.1 |
| 20260509103105 | 40 | 9 | 0.0 | 2.6 | 0.00 | 0.00 | 0.00 | 61 | 1018.0 |
| 20260509101605 | 41 | 9 | 0.9 | 1.7 | 0.00 | 0.00 | 0.00 | 61 | 1017.9 |
| 20260509101104 | 41 | 9 | 0.0 | 2.6 | 0.00 | 0.00 | 0.00 | 61 | 1017.8 |
| 20260509100605 | 41 | 9 | 0.0 | 1.7 | 0.00 | 0.00 | 0.00 | 60 | 1017.9 |
| 20260509093604 | 41 | 7 | 0.0 | 1.7 | 0.00 | 0.00 | 0.00 | 60 | 1017.6 |
| 20260509093105 | 41 | 8 | 0.9 | 1.7 | 0.00 | 0.00 | 0.00 | 60 | 1017.6 |
| 20260509091604 | 41 | 6 | 0.0 | 1.7 | 0.00 | 0.00 | 0.00 | 60 | 1017.7 |
| 20260509091105 | 42 | 9 | 0.0 | 1.7 | 0.00 | 0.00 | 0.00 | 60 | 1017.6 |
| 20260509090605 | 42 | 9 | 1.7 | 2.6 | 0.00 | 0.00 | 0.00 | 59 | 1017.6 |
| 20260509090104 | 42 | 9 | 0.9 | 5.2 | 0.00 | 0.00 | 0.00 | 58 | 1017.6 |
| 20260509084604 | 43 | 11 | 0.0 | 1.7 | 0.00 | 0.00 | 0.00 | 57 | 1017.5 |
| 20260509084105 | 43 | 11 | 0.9 | 1.7 | 0.00 | 0.00 | 0.00 | 56 | 1017.5 |
| 20260509081605 | 43 | 9 | 1.7 | 6.1 | 0.00 | 0.00 | 0.00 | 57 | 1017.5 |
| 20260509080105 | 42 | 9 | 0.9 | 2.6 | 0.00 | 0.00 | 0.00 | 59 | 1017.5 |
| 20260509074604 | 42 | 9 | 0.0 | 2.6 | 0.00 | 0.00 | 0.00 | 60 | 1017.5 |
| 20260509074104 | 43 | 9 | 1.7 | 2.6 | 0.00 | 0.00 | 0.00 | 60 | 1017.5 |
| 20260509073604 | 43 | 10 | 0.9 | 2.6 | 0.00 | 0.00 | 0.00 | 58 | 1017.6 |
| 20260509073104 | 44 | 11 | 0.9 | 2.6 | 0.00 | 0.00 | 0.00 | 55 | 1017.4 |
| 20260509071104 | 45 | 9 | 0.9 | 2.6 | 0.00 | 0.00 | 0.00 | 55 | 1017.3 |
| 20260509070604 | 45 | 9 | 1.7 | 5.2 | 0.00 | 0.00 | 0.00 | 54 | 1017.3 |
| 20260509064604 | 46 | 10 | 5.2 | 8.7 | 0.00 | 0.00 | 0.00 | 50 | 1017.3 |
| 20260509064104 | 45 | 9 | 3.5 | 7.0 | 0.00 | 0.00 | 0.00 | 51 | 1017.3 |
| 20260509063604 | 45 | 9 | 1.7 | 2.6 | 0.00 | 0.00 | 0.00 | 52 | 1017.3 |
| 20260509063104 | 45 | 9 | 0.9 | 8.7 | 0.00 | 0.00 | 0.00 | 51 | 1017.3 |
| 20260509061605 | 46 | 9 | 1.7 | 4.3 | 0.00 | 0.00 | 0.00 | 56 | 1017.3 |
| 20260509061106 | 46 | 9 | 0.9 | 7.8 | 0.00 | 0.00 | 0.00 | 51 | 1017.4 |
| 20260509060604 | 46 | 11 | 7.8 | 10.4 | 0.00 | 0.00 | 0.00 | 50 | 1017.4 |
| 20260509060104 | 46 | 10 | 5.2 | 10.4 | 0.00 | 0.00 | 0.00 | 50 | 1017.4 |
| 20260509054104 | 47 | 9 | 1.7 | 4.3 | 0.00 | 0.00 | 0.00 | 50 | 1017.4 |
| 20260509053604 | 47 | 9 | 2.6 | 5.2 | 0.00 | 0.00 | 0.00 | 48 | 1017.4 |
| 20260509053105 | 47 | 9 | 4.3 | 8.7 | 0.00 | 0.00 | 0.00 | 48 | 1017.4 |
| 20260509050604 | 49 | 9 | 2.6 | 7.8 | 0.00 | 0.00 | 0.00 | 45 | 1017.5 |
| 20260509050104 | 49 | 10 | 2.6 | 10.4 | 0.00 | 0.00 | 0.00 | 45 | 1017.5 |
| 20260509043604 | 49 | 9 | 5.2 | 7.8 | 0.00 | 0.00 | 0.00 | 45 | 1017.4 |
| 20260509043104 | 49 | 9 | 2.6 | 4.3 | 0.00 | 0.00 | 0.00 | 45 | 1017.4 |
| 20260509041604 | 49 | 9 | 2.6 | 5.2 | 0.00 | 0.00 | 0.00 | 44 | 1017.2 |
| 20260509040605 | 50 | 9 | 2.6 | 6.1 | 0.00 | 0.00 | 0.00 | 43 | 1017.1 |
| 20260509040104 | 50 | 10 | 4.3 | 8.7 | 0.00 | 0.00 | 0.00 | 43 | 1017.1 |
| 20260509034604 | 50 | 9 | 3.5 | 6.1 | 0.00 | 0.00 | 0.00 | 43 | 1017.0 |
| 20260509034104 | 50 | 9 | 1.7 | 6.1 | 0.00 | 0.00 | 0.00 | 44 | 1016.9 |
| 20260509033604 | 50 | 9 | 1.7 | 2.6 | 0.00 | 0.00 | 0.00 | 46 | 1016.8 |
| 20260509031604 | 51 | 9 | 1.7 | 2.6 | 0.00 | 0.00 | 0.00 | 44 | 1016.5 |
| 20260509031104 | 52 | 9 | 2.6 | 2.6 | 0.00 | 0.00 | 0.00 | 43 | 1016.5 |
| 20260509030604 | 52 | 9 | 2.6 | 2.6 | 0.00 | 0.00 | 0.00 | 42 | 1016.4 |
| 20260509030104 | 53 | 9 | 1.7 | 2.6 | 0.00 | 0.00 | 0.00 | 40 | 1016.5 |
| 20260509024105 | 55 | 5 | 0.0 | 1.7 | 0.00 | 0.00 | 0.00 | 36 | 1016.1 |
| 20260509023104 | 55 | 10 | 1.7 | 4.3 | 0.00 | 0.00 | 0.00 | 36 | 1015.8 |
| 20260509021604 | 56 | 15 | 0.9 | 2.6 | 0.00 | 0.00 | 0.00 | 34 | 1015.9 |
| 20260509020604 | 57 | 15 | 0.9 | 2.6 | 0.00 | 0.00 | 0.00 | 33 | 1015.9 |
| 20260509020104 | 57 | 15 | 1.7 | 6.1 | 0.00 | 0.00 | 0.00 | 33 | 1015.9 |
| 20260509014604 | 58 | 14 | 1.7 | 7.8 | 0.00 | 0.00 | 0.00 | 32 | 1015.9 |
| 20260509013604 | 58 | 12 | 2.6 | 7.8 | 0.00 | 0.00 | 0.00 | 32 | 1015.8 |
| 20260509013104 | 59 | 15 | 1.7 | 8.7 | 0.00 | 0.00 | 0.00 | 31 | 1015.9 |
| 20260509011604 | 59 | 15 | 3.5 | 8.7 | 0.00 | 0.00 | 0.00 | 30 | 1016.0 |
| 20260509011104 | 60 | 14 | 1.7 | 7.8 | 0.00 | 0.00 | 0.00 | 30 | 1016.1 |
| 20260509010604 | 60 | 14 | 3.5 | 7.0 | 0.00 | 0.00 | 0.00 | 29 | 1016.1 |
| 20260509010104 | 60 | 14 | 3.5 | 12.2 | 0.00 | 0.00 | 0.00 | 29 | 1016.0 |
| 20260509004603 | 61 | 14 | 1.7 | 7.8 | 0.00 | 0.00 | 0.00 | 30 | 1015.9 |
| 20260509004104 | 61 | 11 | 3.5 | 8.7 | 0.00 | 0.00 | 0.00 | 30 | 1016.1 |
| 20260509003604 | 61 | 15 | 4.3 | 8.7 | 0.00 | 0.00 | 0.00 | 28 | 1016.1 |
| 20260509003104 | 62 | 15 | 4.3 | 10.4 | 0.00 | 0.00 | 0.00 | 28 | 1016.2 |
| 20260509001604 | 62 | 9 | 1.7 | 8.7 | 0.00 | 0.00 | 0.00 | 28 | 1016.2 |
| 20260509001104 | 62 | 14 | 1.7 | 10.4 | 0.00 | 0.00 | 0.00 | 28 | 1016.3 |
| 20260509000604 | 62 | 14 | 2.6 | 10.4 | 0.00 | 0.00 | 0.00 | 28 | 1016.4 |
| 20260509000104 | 62 | 11 | 5.2 | 14.8 | 0.00 | 0.00 | 0.00 | 27 | 1016.5 |
| 20260508234604 | 64 | 11 | 2.6 | 8.7 | 0.00 | 0.00 | 0.00 | 27 | 1016.5 |
| 20260508234104 | 64 | 15 | 2.6 | 10.4 | 0.00 | 0.00 | 0.00 | 27 | 1016.4 |
| 20260508233603 | 64 | 14 | 2.6 | 8.7 | 0.00 | 0.00 | 0.00 | 27 | 1016.5 |
| 20260508233104 | 64 | 14 | 2.6 | 12.2 | 0.00 | 0.00 | 0.00 | 26 | 1016.5 |
| 20260508231604 | 63 | 14 | 4.3 | 8.7 | 0.00 | 0.00 | 0.00 | 26 | 1016.7 |
| 20260508231104 | 64 | 14 | 5.2 | 15.6 | 0.00 | 0.00 | 0.00 | 25 | 1016.6 |
| 20260508230604 | 64 | 14 | 5.2 | 10.4 | 0.00 | 0.00 | 0.00 | 26 | 1016.7 |
| 20260508230104 | 64 | 15 | 5.2 | 13.0 | 0.00 | 0.00 | 0.00 | 25 | 1016.7 |
| 20260508224603 | 64 | 13 | 4.3 | 11.3 | 0.00 | 0.00 | 0.00 | 27 | 1016.5 |
| 20260508224103 | 64 | 13 | 4.3 | 14.8 | 0.00 | 0.00 | 0.00 | 25 | 1016.7 |
| 20260508223605 | 65 | 14 | 5.2 | 10.4 | 0.00 | 0.00 | 0.00 | 25 | 1016.7 |
| 20260508221603 | 65 | 14 | 4.3 | 13.0 | 0.00 | 0.00 | 0.00 | 25 | 1016.6 |
| 20260508221104 | 65 | 13 | 5.2 | 11.3 | 0.00 | 0.00 | 0.00 | 25 | 1016.8 |
| 20260508220604 | 65 | 13 | 4.3 | 12.2 | 0.00 | 0.00 | 0.00 | 26 | 1016.6 |
| 20260508220105 | 65 | 13 | 5.2 | 13.9 | 0.00 | 0.00 | 0.00 | 24 | 1016.7 |
| 20260508214605 | 65 | 14 | 7.8 | 15.6 | 0.00 | 0.00 | 0.00 | 24 | 1016.8 |
| 20260508214105 | 65 | 13 | 5.2 | 17.4 | 0.00 | 0.00 | 0.00 | 26 | 1016.8 |
| 20260508213605 | 66 | 13 | 5.2 | 15.6 | 0.00 | 0.00 | 0.00 | 26 | 1016.7 |
| 20260508213105 | 65 | 14 | 5.2 | 15.6 | 0.00 | 0.00 | 0.00 | 26 | 1016.7 |
| 20260508211605 | 65 | 13 | 6.1 | 14.8 | 0.00 | 0.00 | 0.00 | 27 | 1017.0 |
| 20260508210605 | 66 | 12 | 4.3 | 15.6 | 0.00 | 0.00 | 0.00 | 26 | 1016.8 |
| 20260508210105 | 66 | 13 | 4.3 | 13.0 | 0.00 | 0.00 | 0.00 | 26 | 1016.9 |
| 20260508204106 | 66 | 14 | 6.1 | 13.9 | 0.00 | 0.00 | 0.00 | 27 | 1016.7 |
| 20260508203605 | 66 | 13 | 3.5 | 11.3 | 0.00 | 0.00 | 0.00 | 27 | 1016.8 |
| 20260508203105 | 65 | 12 | 7.0 | 15.6 | 0.00 | 0.00 | 0.00 | 27 | 1016.7 |
| 20260508201605 | 65 | 13 | 5.2 | 10.4 | 0.00 | 0.00 | 0.00 | 26 | 1016.7 |
| 20260508201105 | 65 | 10 | 4.3 | 12.2 | 0.00 | 0.00 | 0.00 | 28 | 1016.7 |
| 20260508200605 | 65 | 12 | 4.3 | 13.9 | 0.00 | 0.00 | 0.00 | 28 | 1016.6 |
| 20260508200105 | 65 | 13 | 4.3 | 19.1 | 0.00 | 0.00 | 0.00 | 28 | 1016.6 |
| 20260508194105 | 66 | 14 | 5.2 | 12.2 | 0.00 | 0.00 | 0.00 | 31 | 1016.8 |
| 20260508193605 | 66 | 11 | 4.3 | 11.3 | 0.00 | 0.00 | 0.00 | 28 | 1016.6 |
| 20260508193105 | 66 | 13 | 5.2 | 13.9 | 0.00 | 0.00 | 0.00 | 27 | 1016.8 |